| time (UTC) | temp F | wind direction | speed MPH | gust MPH | rain 1hr in | rain 24hr in | rain mn in | humidity % | barometer mb |
| 20260509224005 | 77 | 177 | 0.0 | 0.0 | 0.00 | 0.02 | 0.02 | 82 | 1009.5 |
| 20260509223504 | 78 | 176 | 0.0 | 0.0 | 0.00 | 0.02 | 0.02 | 81 | 1009.5 |
| 20260509223005 | 78 | 197 | 0.0 | 0.0 | 0.00 | 0.02 | 0.02 | 81 | 1009.5 |
| 20260509222505 | 79 | 182 | 0.0 | 0.0 | 0.00 | 0.02 | 0.02 | 81 | 1009.3 |
| 20260509222004 | 80 | 176 | 0.0 | 1.0 | 0.00 | 0.02 | 0.02 | 81 | 1009.3 |
| 20260509221504 | 81 | 169 | 0.0 | 1.0 | 0.00 | 0.02 | 0.02 | 81 | 1009.2 |
| 20260509220504 | 85 | 178 | 0.0 | 1.0 | 0.00 | 0.02 | 0.02 | 78 | 1008.9 |
| 20260509215504 | 85 | 180 | 0.0 | 0.0 | 0.00 | 0.02 | 0.02 | 77 | 1008.5 |
| 20260509214504 | 85 | 279 | 0.0 | 0.0 | 0.00 | 0.02 | 0.02 | 77 | 1008.5 |
| 20260509213504 | 86 | 279 | 0.0 | 0.0 | 0.00 | 0.02 | 0.02 | 78 | 1008.6 |
| 20260509213005 | 86 | 279 | 0.0 | 0.0 | 0.00 | 0.02 | 0.02 | 77 | 1008.6 |
| 20260509212504 | 86 | 279 | 0.0 | 0.0 | 0.00 | 0.02 | 0.02 | 77 | 1008.5 |
| 20260509212004 | 85 | 278 | 0.0 | 0.0 | 0.00 | 0.02 | 0.02 | 77 | 1008.5 |
| 20260509211004 | 85 | 277 | 0.0 | 0.0 | 0.00 | 0.02 | 0.02 | 78 | 1008.8 |
| 20260509210504 | 85 | 276 | 0.0 | 0.0 | 0.00 | 0.02 | 0.02 | 78 | 1008.8 |
| 20260509210004 | 85 | 271 | 0.0 | 0.0 | 0.00 | 0.02 | 0.02 | 77 | 1008.8 |
| 20260509205504 | 84 | 274 | 0.0 | 0.0 | 0.00 | 0.02 | 0.02 | 79 | 1008.9 |
| 20260509205005 | 84 | 340 | 0.0 | 0.0 | 0.00 | 0.02 | 0.02 | 79 | 1008.9 |
| 20260509204504 | 84 | 343 | 0.0 | 0.0 | 0.00 | 0.02 | 0.02 | 81 | 1009.0 |
| 20260509204004 | 84 | 343 | 0.0 | 0.0 | 0.00 | 0.02 | 0.02 | 80 | 1009.1 |
| 20260509203504 | 84 | 5 | 0.0 | 0.0 | 0.00 | 0.02 | 0.02 | 81 | 1009.1 |
| 20260509203004 | 84 | 5 | 0.0 | 0.0 | 0.00 | 0.02 | 0.02 | 80 | 1009.2 |
| 20260509202505 | 84 | 5 | 0.0 | 0.0 | 0.00 | 0.02 | 0.02 | 80 | 1009.3 |
| 20260509202005 | 84 | 5 | 0.0 | 0.0 | 0.00 | 0.02 | 0.02 | 80 | 1009.3 |
| 20260509201503 | 83 | 5 | 0.0 | 0.0 | 0.00 | 0.02 | 0.02 | 81 | 1009.4 |
| 20260509201004 | 83 | 5 | 0.0 | 0.0 | 0.00 | 0.02 | 0.02 | 81 | 1009.5 |
| 20260509200504 | 83 | 5 | 0.0 | 0.0 | 0.00 | 0.02 | 0.02 | 80 | 1009.5 |
| 20260509195504 | 83 | 5 | 0.0 | 0.0 | 0.00 | 0.02 | 0.02 | 80 | 1009.7 |
| 20260509194504 | 83 | 5 | 0.0 | 0.0 | 0.00 | 0.02 | 0.02 | 81 | 1009.7 |
| 20260509194004 | 83 | 5 | 0.0 | 0.0 | 0.00 | 0.02 | 0.02 | 81 | 1009.5 |
| 20260509193506 | 83 | 4 | 0.0 | 0.0 | 0.00 | 0.02 | 0.02 | 81 | 1009.6 |
| 20260509193004 | 83 | 355 | 0.0 | 0.0 | 0.00 | 0.02 | 0.02 | 82 | 1009.7 |
| 20260509192504 | 82 | 355 | 0.0 | 0.0 | 0.00 | 0.02 | 0.02 | 83 | 1009.8 |
| 20260509192004 | 82 | 177 | 0.0 | 0.0 | 0.00 | 0.02 | 0.02 | 83 | 1010.0 |
| 20260509191504 | 82 | 177 | 0.0 | 0.0 | 0.00 | 0.02 | 0.02 | 83 | 1010.0 |
| 20260509191004 | 82 | 177 | 0.0 | 0.0 | 0.00 | 0.02 | 0.02 | 84 | 1010.1 |
| 20260509190503 | 82 | 177 | 0.0 | 0.0 | 0.00 | 0.02 | 0.02 | 83 | 1010.1 |
| 20260509185504 | 82 | 177 | 0.0 | 0.0 | 0.00 | 0.02 | 0.02 | 82 | 1010.3 |
| 20260509185004 | 82 | 177 | 0.0 | 0.0 | 0.00 | 0.02 | 0.02 | 83 | 1010.4 |
| 20260509184503 | 82 | 177 | 0.0 | 0.0 | 0.00 | 0.02 | 0.02 | 83 | 1010.3 |
| 20260509184004 | 82 | 177 | 0.0 | 0.0 | 0.00 | 0.02 | 0.02 | 83 | 1010.3 |
| 20260509183504 | 82 | 189 | 0.0 | 0.0 | 0.00 | 0.02 | 0.02 | 83 | 1010.3 |
| 20260509183004 | 82 | 189 | 0.0 | 0.0 | 0.00 | 0.02 | 0.02 | 84 | 1010.5 |
| 20260509182005 | 82 | 198 | 0.0 | 0.0 | 0.00 | 0.02 | 0.02 | 84 | 1010.6 |
| 20260509181504 | 82 | 198 | 0.0 | 0.0 | 0.00 | 0.02 | 0.02 | 83 | 1010.7 |
| 20260509181004 | 82 | 198 | 0.0 | 0.0 | 0.00 | 0.02 | 0.02 | 83 | 1010.7 |
| 20260509180504 | 82 | 198 | 0.0 | 0.0 | 0.00 | 0.02 | 0.02 | 83 | 1010.8 |
| 20260509180005 | 82 | 198 | 0.0 | 0.0 | 0.00 | 0.02 | 0.02 | 83 | 1010.7 |
| 20260509175004 | 81 | 198 | 0.0 | 0.0 | 0.00 | 0.02 | 0.02 | 83 | 1010.8 |
| 20260509174504 | 81 | 198 | 0.0 | 0.0 | 0.00 | 0.02 | 0.02 | 83 | 1010.9 |
| 20260509173504 | 81 | 175 | 0.0 | 0.0 | 0.00 | 0.02 | 0.02 | 83 | 1011.0 |
| 20260509173005 | 81 | 182 | 0.0 | 0.0 | 0.00 | 0.02 | 0.02 | 83 | 1011.0 |
| 20260509172504 | 81 | 182 | 0.0 | 0.0 | 0.00 | 0.02 | 0.02 | 84 | 1011.1 |
| 20260509172004 | 81 | 182 | 0.0 | 0.0 | 0.00 | 0.02 | 0.02 | 84 | 1011.1 |
| 20260509171504 | 81 | 182 | 0.0 | 0.0 | 0.00 | 0.02 | 0.02 | 84 | 1011.1 |
| 20260509171004 | 81 | 183 | 0.0 | 0.0 | 0.00 | 0.02 | 0.02 | 85 | 1011.1 |
| 20260509170504 | 80 | 174 | 0.0 | 0.0 | 0.00 | 0.02 | 0.02 | 86 | 1011.1 |
| 20260509170003 | 80 | 172 | 0.0 | 0.0 | 0.00 | 0.02 | 0.02 | 87 | 1011.1 |
| 20260509165504 | 80 | 167 | 0.0 | 0.0 | 0.00 | 0.02 | 0.02 | 88 | 1011.1 |
| 20260509164504 | 79 | 167 | 0.0 | 0.0 | 0.00 | 0.02 | 0.02 | 90 | 1011.1 |
| 20260509164004 | 78 | 167 | 0.0 | 0.0 | 0.00 | 0.02 | 0.02 | 90 | 1011.1 |
| 20260509163504 | 78 | 167 | 0.0 | 0.0 | 0.00 | 0.02 | 0.02 | 91 | 1011.2 |
| 20260509163004 | 78 | 167 | 0.0 | 0.0 | 0.00 | 0.02 | 0.02 | 91 | 1011.2 |
| 20260509162504 | 78 | 167 | 0.0 | 0.0 | 0.00 | 0.02 | 0.02 | 92 | 1011.3 |
| 20260509162004 | 78 | 167 | 0.0 | 0.0 | 0.00 | 0.02 | 0.02 | 92 | 1011.4 |
| 20260509161504 | 78 | 170 | 0.0 | 0.0 | 0.00 | 0.02 | 0.02 | 93 | 1011.6 |
| 20260509161004 | 77 | 170 | 0.0 | 0.0 | 0.00 | 0.02 | 0.02 | 93 | 1011.5 |
| 20260509160504 | 77 | 170 | 0.0 | 0.0 | 0.00 | 0.02 | 0.02 | 93 | 1011.6 |
| 20260509160004 | 77 | 183 | 0.0 | 0.0 | 0.00 | 0.02 | 0.02 | 93 | 1011.7 |
| 20260509155504 | 77 | 188 | 0.0 | 0.0 | 0.00 | 0.02 | 0.02 | 94 | 1011.6 |
| 20260509154504 | 76 | 188 | 0.0 | 0.0 | 0.00 | 0.02 | 0.02 | 94 | 1011.5 |
| 20260509154004 | 76 | 188 | 0.0 | 0.0 | 0.00 | 0.02 | 0.02 | 94 | 1011.4 |
| 20260509153504 | 76 | 188 | 0.0 | 0.0 | 0.00 | 0.02 | 0.02 | 94 | 1011.5 |
| 20260509153004 | 76 | 188 | 0.0 | 0.0 | 0.00 | 0.02 | 0.02 | 94 | 1011.4 |
| 20260509152504 | 76 | 188 | 0.0 | 0.0 | 0.00 | 0.02 | 0.02 | 94 | 1011.4 |
| 20260509151504 | 76 | 188 | 0.0 | 0.0 | 0.00 | 0.02 | 0.02 | 94 | 1011.4 |
| 20260509151005 | 76 | 188 | 0.0 | 0.0 | 0.00 | 0.02 | 0.02 | 94 | 1011.2 |
| 20260509150004 | 76 | 188 | 0.0 | 0.0 | 0.00 | 0.02 | 0.02 | 94 | 1010.8 |
| 20260509145504 | 76 | 181 | 0.0 | 0.0 | 0.00 | 0.02 | 0.02 | 94 | 1010.7 |
| 20260509145004 | 76 | 181 | 0.0 | 0.0 | 0.00 | 0.02 | 0.02 | 94 | 1010.6 |
| 20260509144004 | 75 | 188 | 0.0 | 0.0 | 0.00 | 0.02 | 0.02 | 94 | 1010.5 |
| 20260509143504 | 75 | 188 | 0.0 | 0.0 | 0.00 | 0.02 | 0.02 | 94 | 1010.6 |
| 20260509142504 | 75 | 188 | 0.0 | 0.0 | 0.00 | 0.02 | 0.02 | 94 | 1010.6 |
| 20260509141504 | 75 | 188 | 0.0 | 0.0 | 0.00 | 0.02 | 0.02 | 94 | 1010.8 |
| 20260509141004 | 75 | 188 | 0.0 | 0.0 | 0.00 | 0.02 | 0.02 | 94 | 1010.8 |
| 20260509135504 | 74 | 188 | 0.0 | 0.0 | 0.00 | 0.02 | 0.02 | 94 | 1010.9 |
| 20260509135004 | 74 | 188 | 0.0 | 0.0 | 0.00 | 0.02 | 0.02 | 94 | 1010.8 |
| 20260509134503 | 74 | 188 | 0.0 | 0.0 | 0.00 | 0.02 | 0.02 | 94 | 1010.9 |
| 20260509134003 | 74 | 188 | 0.0 | 0.0 | 0.00 | 0.02 | 0.02 | 94 | 1011.0 |
| 20260509133504 | 74 | 188 | 0.0 | 0.0 | 0.00 | 0.02 | 0.02 | 94 | 1011.1 |
| 20260509133004 | 74 | 188 | 0.0 | 0.0 | 0.01 | 0.02 | 0.02 | 94 | 1011.1 |
| 20260509132504 | 74 | 188 | 0.0 | 0.0 | 0.01 | 0.02 | 0.02 | 94 | 1011.2 |
| 20260509010503 | 71 | 225 | 0.0 | 0.0 | 0.02 | 0.02 | 0.02 | 91 | 1010.3 |
| 20260509010004 | 71 | 225 | 0.0 | 0.0 | 0.02 | 0.02 | 0.02 | 91 | 1010.4 |
| 20260509005504 | 71 | 225 | 0.0 | 0.0 | 0.02 | 0.02 | 0.02 | 91 | 1010.1 |
| 20260509005004 | 71 | 225 | 0.0 | 0.0 | 0.02 | 0.02 | 0.02 | 91 | 1010.2 |
| 20260509004503 | 71 | 225 | 0.0 | 0.0 | 0.02 | 0.02 | 0.02 | 91 | 1010.4 |
| 20260509004004 | 71 | 225 | 0.0 | 0.0 | 0.02 | 0.02 | 0.02 | 91 | 1010.4 |
| 20260509003504 | 71 | 225 | 0.0 | 0.0 | 0.02 | 0.02 | 0.02 | 91 | 1010.4 |
| 20260509003004 | 71 | 225 | 0.0 | 0.0 | 0.02 | 0.02 | 0.02 | 91 | 1010.1 |
| 20260509002004 | 71 | 225 | 0.0 | 0.0 | 0.02 | 0.02 | 0.02 | 91 | 1010.4 |
| 20260509001504 | 72 | 225 | 0.0 | 0.0 | 0.01 | 0.01 | 0.01 | 91 | 1010.5 |
| 20260509001004 | 72 | 225 | 0.0 | 0.0 | 0.00 | 0.00 | 0.00 | 90 | 1010.6 |
| 20260509000004 | 72 | 225 | 0.0 | 0.0 | 0.00 | 0.00 | 0.00 | 90 | 1010.5 |
| 20260508235004 | 72 | 188 | 0.0 | 0.0 | 0.00 | 0.00 | 0.00 | 90 | 1010.5 |
| 20260508233004 | 72 | 186 | 0.0 | 0.0 | 0.00 | 0.00 | 0.00 | 90 | 1010.8 |
| 20260508232504 | 72 | 186 | 0.0 | 0.0 | 0.00 | 0.00 | 0.00 | 89 | 1010.7 |
| 20260508232004 | 72 | 253 | 0.0 | 0.0 | 0.00 | 0.00 | 0.00 | 89 | 1010.5 |
| 20260508231503 | 72 | 274 | 0.0 | 0.0 | 0.00 | 0.00 | 0.00 | 89 | 1010.5 |
| 20260508230504 | 73 | 276 | 0.0 | 0.0 | 0.00 | 0.00 | 0.00 | 89 | 1010.5 |
| 20260508230004 | 73 | 187 | 0.0 | 0.0 | 0.00 | 0.00 | 0.00 | 89 | 1010.6 |
| 20260508225504 | 73 | 187 | 0.0 | 0.0 | 0.00 | 0.00 | 0.00 | 89 | 1010.5 |
| 20260508225004 | 73 | 186 | 0.0 | 0.0 | 0.00 | 0.00 | 0.00 | 88 | 1010.6 |
| 20260508224504 | 73 | 186 | 0.0 | 0.0 | 0.00 | 0.00 | 0.00 | 88 | 1010.6 |